Weather History for Skagway, AK

Change the Weather History Date:

Tuesday, May 21, 2013

  Actual Average Record
Temperature  
Mean Temperature 50 °F -  
Max Temperature 62 °F 56 °F 74 °F (1989)
Min Temperature 39 °F 41 °F 31 °F (1988)
Degree Days  
Heating Degree Days 15    
Moisture  
Dew Point 20 °F    
Average Humidity 32    
Maximum Humidity 58    
Minimum Humidity 19    
Precipitation  
Precipitation 0.00 in - - ()
Sea Level Pressure  
Sea Level Pressure 30.36 in    
Wind  
Wind Speed 8 mph (NE)    
Max Wind Speed 17 mph    
Max Gust Speed 26 mph    
Visibility 10 miles    
Events      
Averages and records for this station are not official NWS values.
T = Trace of Precipitation, MM = Missing Value Source: NWS Daily Summary

Daily Weather History Graph

Daily Weather History Graph

Search for Another Location

Airport:

Trip Planner

Search our weather history database for the weather conditions in past years. The results will help you decide how hot, cold, wet, or windy it might be!

Date:

Astronomy

May. 21, 2013 Rise Set
Actual Time 4:13 AM AKDT 9:43 PM AKDT
Civil Twilight 3:07 AM AKDT 10:51 PM AKDT
Nautical Twilight 1:30 AM AKDT 12:25 AM AKDT
Astronomical Twilight Sun does not rise Sun does not rise
Moon 5:13 PM AKDT (5/21) 2:47 AM AKDT (5/21)
Length of Visible Light 19h 44m
Length of Day
17h 29m
Waxing Gibbous, 85% of the Moon is Illuminated
May 21
Waxing Gibbous
May 24
Full
May 31
Last Quarter
Jun 8
New
Jun 16
First Quarter

Hourly Weather History & Observations

Time (AKDT) Temp. Windchill Dew Point Humidity Pressure Visibility Wind Dir Wind Speed Gust Speed Precip Events Conditions
12:53 AM 43.0 °F 39.5 °F 19.0 °F 38% 30.52 in 10.0 mi NE 5.8 mph - N/A   Clear
1:53 AM 42.1 °F 40.2 °F 19.9 °F 41% 30.50 in 10.0 mi NNE 3.5 mph - N/A   Clear
2:53 AM 39.9 °F - 21.0 °F 47% 30.51 in 10.0 mi Calm Calm - N/A   Clear
3:53 AM 39.9 °F 35.8 °F 21.0 °F 47% 30.51 in 10.0 mi NE 5.8 mph - N/A   Clear
4:53 AM 39.9 °F 35.8 °F 21.0 °F 47% 30.51 in 10.0 mi NE 5.8 mph - N/A   Clear
5:53 AM 43.0 °F 36.0 °F 19.0 °F 38% 30.49 in 10.0 mi NNE 13.8 mph - N/A   Clear
6:53 AM 45.0 °F 38.5 °F 19.0 °F 36% 30.49 in 10.0 mi NNE 13.8 mph - N/A   Clear
7:53 AM 46.9 °F - 19.0 °F 33% 30.47 in 10.0 mi NE 16.1 mph 24.2 mph N/A   Clear
8:53 AM 50.0 °F - 18.0 °F 28% 30.46 in 10.0 mi NE 12.7 mph 25.3 mph N/A   Clear
9:53 AM 51.1 °F - 18.0 °F 27% 30.44 in 10.0 mi NE 17.3 mph 25.3 mph N/A   Clear
10:53 AM 53.1 °F - 19.0 °F 26% 30.42 in 10.0 mi NNE 12.7 mph 25.3 mph N/A   Clear
11:53 AM 54.0 °F - 18.0 °F 24% 30.39 in 10.0 mi NE 15.0 mph 26.5 mph N/A   Clear
12:53 PM 55.9 °F - 18.0 °F 23% 30.36 in 10.0 mi NE 15.0 mph 21.9 mph N/A   Clear
1:53 PM 57.9 °F - 19.0 °F 22% 30.33 in - NNE 13.8 mph 21.9 mph N/A   Clear
2:53 PM 60.1 °F - 17.1 °F 19% 30.30 in - NNE 11.5 mph 21.9 mph N/A   Clear
3:53 PM 61.0 °F - 19.0 °F 20% 30.28 in - NNE 8.1 mph - N/A   Clear
4:53 PM 61.0 °F - 19.0 °F 20% 30.25 in - Variable 5.8 mph - N/A   Clear
5:53 PM 61.0 °F - 19.0 °F 20% 30.22 in - Variable 6.9 mph - N/A   Clear
6:53 PM 61.0 °F - 19.0 °F 20% 30.21 in - NNE 5.8 mph - N/A   Clear
7:53 PM 59.0 °F - 18.0 °F 20% 30.19 in - Variable 5.8 mph - N/A   Clear
8:53 PM 57.0 °F - 19.9 °F 24% 30.19 in - Variable 4.6 mph - N/A   Clear
9:53 PM 51.1 °F - 26.1 °F 38% 30.19 in - Calm Calm - N/A   Clear
10:53 PM 48.0 °F - 28.9 °F 48% 30.19 in - ENE 4.6 mph - N/A   Clear
11:53 PM 44.1 °F 40.8 °F 30.0 °F 58% 30.18 in - NE 5.8 mph - N/A   Partly Cloudy